User: anonymous   Login
Location: Unspecified
(0.0000°N, 0.0000°E)
Time: 00:04:36
(UTC+00:00)
Language:

TBA - TO BE ASSIGNED - Orbit

View from above orbital plane
View from above orbital plane
View from above satellite
View from above satellite

Ground track
Ground track

The orbit is defined by the following mean orbital elements,

1 68036U          26145.34565389 +.00000000 +00000-0 +69882-3 0 00003
2 68036  97.2846  94.3967 0000904  67.8810 292.2529 15.33457297    09
Epoch (UTC): 25 May 2026 08:17:44
Eccentricity: 0.0000904
inclination: 97.2846°
perigee height: 465 km
apogee height: 466 km
right ascension of ascending node: 94.3967°
argument of perigee: 67.8810°
revolutions per day: 15.33457297
mean anomaly at epoch: 292.2529°

The dashed part of the orbit path shows where the satellite is in the earth's shadow,  

DLR